Date,TemperatureHighF,TemperatureAvgF,TemperatureLowF,DewpointHighF,DewpointAvgF,DewpointLowF,HumidityHigh,HumidityAvg,HumidityLow,PressureMaxIn,PressureMinIn,WindSpeedMaxMPH,WindSpeedAvgMPH,GustSpeedMaxMPH,PrecipitationSumIn
2013-5-1,59,45,47,52,32,-100,97,83,70,30.18,30.04,4,-15,9,0.00
2013-5-2,48,11,47,47,-65,-100,97,25,96,30.17,30.14,2,-124,7,0.00
2013-5-3,47,34,44,47,7,-100,98,74,97,30.15,30.00,5,-19,12,0.20
2013-5-4,45,42,38,45,41,38,98,98,98,30.00,29.90,5,1,12,1.13
2013-5-5,46,43,40,45,42,40,98,98,98,29.94,29.76,7,1,15,3.51
2013-5-6,52,43,38,46,42,37,98,95,73,29.86,29.72,4,0,10,0.32
2013-5-7,56,46,37,48,41,34,96,84,48,29.94,29.83,2,0,9,0.05
2013-5-8,58,51,44,50,47,42,97,88,74,30.02,29.87,5,1,13,0.00
2013-5-9,72,58,47,55,49,44,96,76,38,30.08,29.98,11,1,12,0.00
2013-5-10,68,59,53,55,52,48,93,78,60,30.04,29.87,4,0,12,0.00
2013-5-11,69,56,50,58,52,49,95,86,59,29.89,29.77,10,1,12,0.02
2013-5-12,60,49,39,50,36,23,95,64,26,29.99,29.76,7,2,16,0.00
2013-5-13,59,45,34,28,25,-100,74,50,23,30.16,29.96,12,1,18,0.00
2013-5-14,68,53,37,49,38,26,76,58,34,30.21,30.06,5,1,10,0.00
2013-5-15,84,66,54,58,50,44,84,60,29,30.06,29.92,7,2,19,0.00
2013-5-16,77,63,56,59,52,47,83,68,43,29.96,29.86,4,1,13,0.00
2013-5-17,73,62,56,58,54,48,92,77,55,30.01,29.93,4,0,9,0.00
2013-5-18,59,57,55,57,56,54,97,96,91,30.02,29.94,4,0,13,1.55
2013-5-19,63,59,55,62,58,54,98,96,85,30.04,29.94,5,0,9,0.18
2013-5-20,74,62,53,67,58,52,97,89,61,30.05,29.97,5,0,10,0.01
2013-5-21,76,64,59,66,59,49,97,84,57,29.97,29.87,4,0,11,0.01
2013-5-22,70,62,55,66,60,54,97,93,84,29.92,29.79,3,0,10,0.78
2013-5-23,73,61,53,59,54,48,97,81,47,29.86,29.78,6,1,15,0.15
2013-5-24,66,54,45,48,39,25,93,61,26,30.14,29.78,9,2,18,0.00
2013-5-25,73,55,40,49,35,21,81,49,25,30.25,30.12,6,0,12,0.00
2013-5-26,73,58,48,52,41,22,81,55,31,30.18,30.11,5,0,10,0.01
2013-5-27,72,61,53,58,52,44,86,72,55,30.16,30.07,5,0,9,0.00
2013-5-28,72,63,56,61,56,53,92,80,65,30.13,30.06,4,0,10,0.00
2013-5-29,75,64,54,63,57,53,96,81,58,30.14,30.07,4,0,8,0.00
2013-5-30,74,63,57,61,57,55,96,83,53,30.17,30.09,1,0,26,0.00
2013-5-31,72,63,57,62,58,56,96,86,68,30.13,30.04,4,0,9,0.00